Location: Gibsondale
(40.9931°N, 80.2478°W)
Time: 08:47:30
(UTC+00:00)

Lacrosse 5 - Pass Details

Date: 29 October 2020
Orbit: 716 x 723 km, 57.0° (Epoch: 06 November)

Event Time Altitude Azimuth Distance (km) Brightness Sun altitude
Rises 23:08:21 0° 308° (NW) 3,122 5.8 -9.7°
Reaches altitude 10° 23:12:11 10° 337° (NNW) 2,202 4.6 -10.4°
Maximum altitude 23:14:24 13° 3° (N) 2,018 4.1 -10.8°
Drops below altitude 10° 23:16:39 10° 29° (NNE) 2,203 4.0 -11.3°
Enters shadow 23:17:47 - 40° (NE) 2,419 4.1 -11.5°
